This demonstration page uses our WeatherBlox Daily Observations layout. Learn more.

Hourly Observations for July 30, 2017

Temp ( °F °C ) Dew Point ( °F °C ) Humidity (%) Winds ( mph kmh ) Pressure ( in mb ) Visibility ( mi km ) Precip ( " mm )
12:15 am 00:15 Partly Cloudy 70 21 62 16.4 75 75 SSE 8 13 30.03 1017 10 16.09344 0 0
12:35 am 00:35 Partly Cloudy 70 21 61 16.3 75 75 SSE 7 11 30.03 1017 10 16.09344 0 0
12:55 am 00:55 Mostly Cloudy 69 20.8 61 16.3 76 76 SSE 7 11 30.03 1017 10 16.09344 0 0
1:15 am 01:15 Partly Cloudy 69 20.5 62 16.5 78 78 SSE 6 9 30.06 1018 10 16.09344 0 0
1:35 am 01:35 Partly Cloudy 68 20.1 62 16.6 80 80 SSE 6 9 30.06 1018 10 16.09344 0 0
1:55 am 01:55 Partly Cloudy 69 20.3 62 16.4 78 78 SSE 8 13 30.06 1018 10 16.09344 0 0
2:15 am 02:15 Mostly Cloudy 69 20.4 61 16.1 76 76 SSE 8 13 30.06 1018 10 16.09344 0 0
2:35 am 02:35 Cloudy 69 20.3 61 15.9 76 76 SE 7 11 30.06 1018 10 16.09344 0 0
2:55 am 02:55 Partly Cloudy 68 20.1 60 15.8 76 76 SSE 6 9 30.06 1018 10 16.09344 0 0
3:15 am 03:15 Mostly Cloudy 68 20.2 60 15.8 76 76 SSE 3 6 30.06 1018 10 16.09344 0 0
3:35 am 03:35 Cloudy 68 20.1 61 15.9 77 77 Calm 30.06 1018 10 16.09344 0 0
3:55 am 03:55 Mostly Cloudy 68 20.1 60 15.7 76 76 SSE 6 9 30.06 1018 10 16.09344 0 0
4:15 am 04:15 Partly Cloudy 68 20.1 61 16 77 77 S 6 9 30.06 1018 10 16.09344 0 0
4:35 am 04:35 Partly Cloudy 68 20 61 16 78 78 S 5 7 30.06 1018 10 16.09344 0 0
4:55 am 04:55 Mostly Cloudy 68 20 61 16 78 78 S 6 9 30.06 1018 10 16.09344 0 0
5:15 am 05:15 Cloudy 68 20 61 15.9 77 77 S 5 7 30.06 1018 10 16.09344 0 0
5:35 am 05:35 Cloudy 68 20 61 16 78 78 S 5 7 30.09 1019 10 16.09344 0 0
5:55 am 05:55 Mostly Cloudy 67 19.7 61 16 79 79 SSE 5 7 30.09 1019 10 16.09344 0 0
6:15 am 06:15 Partly Cloudy 67 19.3 62 16.5 84 84 SSE 5 7 30.09 1019 10 16.09344 0 0
6:35 am 06:35 Mostly Cloudy 66 19.1 62 16.8 87 87 SE 3 6 30.09 1019 10 16.09344 0 0
6:55 am 06:55 Cloudy 66 19.1 63 17 88 88 SE 3 6 30.09 1019 10 16.09344 0 0
7:15 am 07:15 Cloudy 67 19.3 62 16.8 86 86 SSE 3 6 30.09 1019 10 16.09344 0 0
7:35 am 07:35 Cloudy 67 19.5 62 16.7 84 84 SSE 3 6 30.12 1020 10 16.09344 0 0
7:55 am 07:55 Cloudy 67 19.5 61 16.2 81 81 SSE 6 9 30.12 1020 10 16.09344 0 0
8:15 am 08:15 Cloudy 67 19.5 61 16 80 80 S 7 11 30.12 1020 10 16.09344 0 0
8:35 am 08:35 Cloudy 67 19.5 61 16.2 81 81 SSE 6 9 30.12 1020 10 16.09344 0 0
8:55 am 08:55 Cloudy 67 19.3 61 16.2 82 82 SE 7 11 30.15 1021 10 16.09344 0 0
9:15 am 09:15 Cloudy 67 19.2 62 16.5 84 84 SE 8 13 30.15 1021 10 16.09344 0 0
9:35 am 09:35 Cloudy with Light Rain 67 19.2 62 16.5 84 84 SE 9 15 30.15 1021 10 16.09344 0 0
9:55 am 09:55 Cloudy 66 19.1 62 16.5 85 85 SE 10 17 30.12 1020 10 16.09344 0 0
10:15 am 10:15 Cloudy 67 19.5 61 16 80 80 SE 12 19 30.12 1020 10 16.09344 0 0
10:35 am 10:35 Partly Cloudy 68 19.8 60 15.8 78 78 SE 14 22 30.12 1020 10 16.09344 0 0
10:55 am 10:55 Mostly Cloudy 69 20.5 59 15.1 71 71 SSE 14 22 30.15 1021 10 16.09344 0 0
11:15 am 11:15 Mostly Cloudy 69 20.8 59 15 70 70 SSE 12 19 30.15 1021 10 16.09344 0 0
11:35 am 11:35 Partly Cloudy 70 21.3 60 15.5 70 70 SSE 12 19 30.15 1021 10 16.09344 0 0
11:55 am 11:55 Sunny 71 21.5 60 15.7 70 70 SSE 13 20 30.15 1021 10 16.09344 0 0
12:15 pm 12:15 Mostly Cloudy 71 21.5 61 16 71 71 SSE 7 11 30.15 1021 10 16.09344 0 0
12:35 pm 12:35 Cloudy 71 21.5 59 15 67 67 SSE 9 15 30.15 1021 10 16.09344 0 0
12:55 pm 12:55 Cloudy 71 21.8 59 14.9 65 65 SE 7 11 30.12 1020 10 16.09344 0 0
1:15 pm 13:15 Cloudy 71 21.9 60 15.5 67 67 SSE 10 17 30.12 1020 10 16.09344 0 0
1:35 pm 13:35 Cloudy 73 22.5 60 15.7 66 66 SE 10 17 30.12 1020 10 16.09344 0 0
1:55 pm 13:55 Partly Cloudy 73 23 60 15.8 64 64 SSE 10 17 30.12 1020 10 16.09344 0 0
2:15 pm 14:15 Sunny 74 23.6 61 15.9 62 62 SSE 14 22 30.09 1019 10 16.09344 0 0
2:35 pm 14:35 Sunny 75 23.9 60 15.8 61 61 SSE 13 20 30.09 1019 10 16.09344 0 0
2:55 pm 14:55 Mostly Cloudy 74 23.1 60 15.6 63 63 SSE 10 17 30.09 1019 10 16.09344 0 0
3:15 pm 15:15 Partly Cloudy 75 23.8 61 16 62 62 SSE 12 19 30.09 1019 10 16.09344 0 0
3:35 pm 15:35 Partly Cloudy 75 23.8 61 16.2 63 63 SSE 13 20 30.09 1019 10 16.09344 0 0
3:55 pm 15:55 Cloudy 76 24.2 61 16.2 61 61 S 10 17 30.09 1019 10 16.09344 0 0
4:15 pm 16:15 Partly Cloudy 75 24.1 60 15.6 59 59 S 10 17 30.06 1018 10 16.09344 0 0
4:35 pm 16:35 Sunny 76 24.5 60 15.8 58 58 S 12 19 30.06 1018 10 16.09344 0 0
4:55 pm 16:55 Sunny 76 24.4 58 14.7 55 55 S 14 22 30.06 1018 10 16.09344 0 0
5:15 pm 17:15 Sunny 76 24.4 59 15.1 56 56 S 12 19 30.06 1018 10 16.09344 0 0
5:35 pm 17:35 Sunny 76 24.3 59 14.8 55 55 S 13 20 30.06 1018 10 16.09344 0 0
5:55 pm 17:55 Sunny 76 24.2 59 15.1 57 57 S 8 13 30.03 1017 10 16.09344 0 0
6:15 pm 18:15 Sunny 75 23.8 59 15 58 58 S 12 19 30.03 1017 10 16.09344 0 0
6:35 pm 18:35 Sunny 74 23.6 60 15.5 61 61 SSE 10 17 30.03 1017 10 16.09344 0 0
6:55 pm 18:55 Sunny 74 23.3 60 15.5 62 62 SSE 9 15 30.03 1017 10 16.09344 0 0
7:15 pm 19:15 Sunny 74 23.2 60 15.6 62 62 SSE 8 13 30.06 1018 10 16.09344 0 0
7:35 pm 19:35 Sunny 73 22.6 60 15.3 64 64 SSE 5 7 30.06 1018 10 16.09344 0 0
7:55 pm 19:55 Sunny 72 22.1 60 15.7 67 67 SSE 5 7 30.06 1018 10 16.09344 0 0
8:15 pm 20:15 Sunny 71 21.7 61 16.1 71 71 SE 5 7 30.06 1018 10 16.09344 0 0
8:35 pm 20:35 Sunny 70 21.1 62 16.6 76 76 SE 5 7 30.06 1018 10 16.09344 0 0
8:55 pm 20:55 Clear 68 20 62 16.7 81 81 ESE 5 7 30.09 1019 10 16.09344 0 0
9:15 pm 21:15 Clear 67 19.5 63 17.1 86 86 ESE 5 7 30.09 1019 10 16.09344 0 0
9:35 pm 21:35 Clear 67 19.5 62 16.7 84 84 ESE 5 7 30.09 1019 10 16.09344 0 0
9:55 pm 21:55 Clear 67 19.4 62 16.8 85 85 SE 3 6 30.09 1019 10 16.09344 0 0
10:15 pm 22:15 Clear 67 19.7 62 16.6 82 82 S 6 9 30.09 1019 10 16.09344 0 0
10:35 pm 22:35 Clear 67 19.6 61 16.1 80 80 S 7 11 30.09 1019 10 16.09344 0 0
10:55 pm 22:55 Clear 66 18.8 61 16.1 84 84 Calm 30.09 1019 10 16.09344 0 0
11:15 pm 23:15 Clear 65 18.5 61 16.3 87 87 SE 3 6 30.09 1019 10 16.09344 0 0
11:35 pm 23:35 Clear 65 18.1 62 16.5 90 90 SE 5 7 30.09 1019 10 16.09344 0 0
11:55 pm 23:55 Clear 65 18.5 62 16.5 88 88 SE 7 11 30.09 1019 10 16.09344 0 0

Powered by AerisWeather